Presure
111 122 138 133 115 115 119 138 131 134 164 164 152 161 137 123 137 142 131 132 133 131 139 135 136 133 126 126 137 138 127 137 120 127 132 131 141 150 130 119 124 152 137 158 147
111 112 109 108 112 128 118 117 136 123 132 164 158 172 172 129 139 133 139 139 142 126 132 142 140 140 116 131 130 125 136 119 125 116 129 108 130 113 113 105 142 139 163 130 157
114 120 116 109 111 111 113 117 120 120 120 133 167 156 173 170 168 111 109 140 132 138 138 133 137 146 127 116 130 115 113 104 120 141 125 138 152 147 109 133 140 159 125 134 142
129 130 126 126 124 115 115 109 121 122 124 120 119 137 161 147 168 173 176 128 129 131 131 135 131 140 139 144 123 145 148 107 132 138 123 126 102 123 110 126 131 166 136 139 171
124 131 128 130 132 131 127 120 114 120 121 121 121 122 134 147 163 172 171 171 162 161 149 126 137 140 140 136 142 142 127 111 121 121 124 115 95 118 114 108 165 174 155 149 167
144 142 141 138 133 124 134 136 128 121 120 118 129 123 120 123 133 140 162 164 167 169 176 178 193 212 159 150 132 118 123 125 118 119 111 119 129 121 159 174 173 164 163 166 156
131 134 140 140 139 141 125 127 137 133 132 128 124 123 120 119 126 136 127 142 161 164 168 166 168 167 140 210 239 191 168 125 110 120 115 97 115 176 178 135 177 166 165 163 164
135 140 143 142 146 151 149 147 142 139 137 138 141 136 125 122 123 123 127 129 134 143 151 156 154 117 163 165 159 171 219 128 143 150 200 192 179 181 187 139 197 158 159 162 150
206 197 163 165 198 120 160 154 152 148 145 143 144 148 143 125 122 124 125 127 127 127 130 136 147 148 154 153 152 156 160 166 193 198 177 106 166 172 206 275 153 148 151 147 147
193 192 188 193 200 205 203 196 166 165 155 148 142 143 147 148 136 122 121 131 130 127 137 134 131 143 139 128 145 147 166 160 157 148 154 153 156 153 144 149 153 156 148 148 152
239 273 254 271 247 230 210 193 189 192 208 176 157 150 148 143 142 144 92 133 129 124 132 124 133 133 141 129 153 93 82 141 149 149 148 152 142 145 142 139 139 141 137 143 148
206 207 207 214 217 212 215 227 280 283 242 196 206 172 162 157 150 98 147 144 133 133 120 137 127 132 130 136 132 130 134 138 136 141 142 141 140 144 133 137 134 135 143 136 177
236 228 224 212 212 246 226 231 238 250 281 281 290 226 207 171 148 155 156 148 142 149 144 122 109 97 135 113 144 108 132 147 136 136 132 136 135 138 131 129 130 139 134 154 159
232 190 173 208 203 211 236 212 208 233 270 274 283 285 270 214 192 175 148 160 146 153 151 134 130 118 89 105 135 124 110 130 139 122 131 126 127 121 120 144 134 136 128 139 148
229 216 197 190 193 194 191 173 179 242 276 296 271 272 275 292 296 211 202 166 150 165 159 149 142 131 119 129 129 98 141 147 119 111 141 141 126 125 129 133 137 141 133 149 134
200 199 239 235 244 204 211 266 282 280 281 293 302 305 277 284 294 304 304 188 161 153 170 140 155 146 128 134 131 81 152 130 122 131 131 145 144 128 128 138 129 127 121 142 120
231 240 228 212 225 232 270 276 279 280 294 292 352 383 385 351 285 289 311 212 120 192 117 98 101 90 119 97 122 92 112 107 141 115 131 128 120 125 131 116 125 132 137 149 166
237 189 239 234 229 277 285 278 278 273 357 336 351 345 342 350 355 308 298 295 306 269 222 153 122 149 146 123 157 124 89 143 118 134 145 133 139 133 134 138 126 122 144 151 162
235 230 203 254 268 273 274 265 343 339 329 325 326 326 201 325 329 344 355 294 296 292 310 223 156 131 97 159 142 97 68 123 131 128 95 85 145 136 146 113 104 103 125 126 155
247 252 258 284 274 258 338 346 341 327 328 335 334 330 319 310 317 326 210 97 311 301 302 316 220 144 150 77 116 149 159 153 161 142 131 117 101 119 111 110 133 114 135 129 140
271 279 277 259 276 335 311 305 302 299 296 297 306 305 327 335 331 343 357 370 382 312 306 306 293 214 206 146 114 112 117 148 132 104 149 139 107 93 109 125 90 127 123 126 137
272 262 248 334 313 292 282 278 289 291 296 301 317 315 314 311 315 320 328 315 368 383 302 315 319 144 219 193 136 160 173 87 89 132 146 125 119 115 98 105 132 145 142 131 123
251 345 315 289 277 279 279 265 274 271 277 287 299 327 323 316 318 321 330 349 379 413 500 308 296 308 262 223 194 117 163 173 154 141 151 145 88 143 127 141 136 166 135 133 136
313 291 279 275 259 246 258 252 252 268 276 291 337 329 325 321 323 335 224 255 425 471 471 494 364 307 166 255 222 240 154 160 139 136 129 126 108 119 141 132 146 94 98 152 132
282 273 265 256 257 249 241 249 263 264 276 316 360 340 335 337 346 355 384 406 431 457 451 446 481 301 277 264 254 228 197 203 180 92 163 122 129 141 129 135 97 146 94 149 145
267 260 248 252 249 247 257 250 254 263 273 337 370 353 350 354 356 365 384 410 443 430 431 461 458 159 275 269 257 237 212 230 225 174 103 169 155 139 151 126 142 150 157 120 126
260 252 254 249 248 244 245 247 252 256 293 349 370 357 350 358 368 378 388 405 412 349 470 480 400 324 273 273 255 248 229 204 228 213 167 94 168 179 163 153 153 160 140 166 124
Wind_Speed
15 17 22 21 15 14 14 21 16 16 25 29 30 32 37 24 37 44 32 34 34 33 38 38 39 35 30 25 34 32 17 28 10 6 14 8 10 15 8 5 13 18 17 21 22
20 21 20 19 20 24 20 19 23 18 19 29 32 36 38 32 41 35 42 43 41 29 31 42 42 43 19 32 29 19 29 19 19 12 14 7 6 3 1 3 15 17 20 12 22
25 29 27 24 26 25 24 25 24 24 22 24 33 35 39 41 43 24 22 42 34 39 39 34 37 44 26 22 30 17 18 16 16 30 7 15 23 14 5 16 15 16 10 16 18
36 37 37 36 35 32 32 28 32 30 29 28 27 29 38 41 44 44 40 34 33 33 35 37 34 38 33 42 26 42 39 18 29 30 8 5 7 10 3 10 12 18 12 15 16
39 41 42 43 43 42 41 38 35 36 36 34 34 32 31 37 46 42 43 42 41 39 51 33 38 38 37 37 39 40 29 16 18 10 11 12 3 9 6 8 21 23 13 12 11
48 49 49 49 48 42 48 48 45 43 42 40 44 37 35 43 38 36 42 44 43 42 40 38 32 38 49 40 34 30 27 25 20 12 18 16 18 13 26 31 27 18 10 8 9
45 48 51 52 52 54 49 50 54 52 52 51 48 43 42 48 44 41 40 42 44 43 42 40 38 37 42 34 37 45 46 24 18 21 18 18 13 33 33 15 25 10 6 6 7
51 53 55 55 57 60 61 64 62 60 60 60 60 56 50 54 51 43 43 42 38 38 40 40 39 31 36 33 36 38 38 22 32 34 34 33 28 21 30 15 29 8 5 4 6
70 71 65 69 72 49 68 67 68 68 68 68 67 66 63 56 59 52 48 47 44 42 40 42 43 41 39 38 41 46 39 29 31 33 21 12 16 10 21 28 8 8 5 3 7
72 72 72 75 76 76 78 79 76 75 75 74 71 72 70 67 57 57 50 52 51 46 49 52 47 44 47 36 54 43 30 25 26 27 21 22 18 16 15 11 7 3 5 8 11
61 53 61 53 68 75 81 83 83 84 82 83 83 81 78 71 67 70 24 57 52 50 57 47 49 57 59 42 37 30 8 34 31 31 27 25 24 20 16 13 12 8 12 9 15
70 70 70 69 72 76 80 76 70 72 82 88 91 92 91 85 78 33 76 66 57 63 48 56 62 63 48 48 40 40 38 39 36 36 29 26 21 22 19 20 16 14 12 14 6
60 61 64 73 76 66 76 73 73 82 78 81 80 96 99 97 81 82 83 74 67 70 67 55 41 13 52 31 51 27 45 48 39 35 25 26 23 19 25 20 19 20 15 13 12
64 68 67 73 76 77 76 84 84 82 82 84 83 83 92 103 102 97 81 86 74 75 75 65 75 46 11 34 55 45 22 39 37 19 26 23 23 25 21 28 26 17 15 12 13
65 75 79 79 81 80 74 62 68 86 87 82 89 91 94 95 96 103 103 94 81 88 82 79 83 61 41 65 41 29 55 49 24 24 37 33 31 31 38 32 28 23 19 21 13
72 71 70 71 74 79 84 84 78 79 81 80 79 85 96 96 95 94 97 99 87 86 92 80 88 79 53 61 58 27 67 28 33 37 38 43 44 39 38 40 30 20 23 20 17
64 67 70 75 76 82 84 80 80 81 82 79 58 43 43 65 99 96 98 64 48 94 59 40 37 33 51 20 36 25 32 31 36 37 57 50 40 45 42 29 26 25 23 25 25
66 57 72 73 78 79 79 78 79 78 46 42 42 48 50 48 51 90 100 98 101 109 114 90 62 86 79 48 77 47 23 51 41 56 63 65 51 52 45 41 34 28 26 29 28
69 69 69 79 77 76 75 75 58 48 48 50 48 50 70 57 61 61 68 96 105 101 105 115 92 64 42 89 63 34 6 47 48 65 20 20 55 49 44 36 30 26 31 28 32
76 79 78 70 70 70 52 44 41 39 41 44 51 58 58 60 64 66 51 44 103 110 109 109 115 73 87 20 50 68 75 65 65 62 64 47 30 36 33 29 32 30 37 33 33
68 64 63 64 65 35 37 35 35 37 39 40 45 48 44 44 48 51 57 67 71 106 115 112 115 119 116 74 57 46 46 64 63 46 67 66 45 31 31 37 21 33 36 37 39
58 59 60 32 31 32 34 35 33 35 37 42 44 49 51 54 57 60 61 65 70 75 121 115 109 64 115 115 78 90 90 33 27 69 71 65 69 50 40 37 33 40 43 47 34
56 28 23 29 31 34 35 37 44 47 52 53 54 47 51 56 60 64 68 71 72 69 44 116 105 108 117 119 115 49 83 90 79 66 72 72 24 69 37 53 48 53 48 50 50
26 27 26 25 28 33 46 40 45 55 60 65 48 46 48 53 61 64 39 42 52 37 45 44 100 106 69 118 116 110 75 89 70 63 69 67 21 52 65 55 56 31 31 51 39
26 27 25 25 28 33 37 44 56 61 67 62 46 46 49 52 55 52 52 46 41 31 34 48 58 106 115 118 116 111 87 92 93 13 87 48 91 76 62 59 37 53 33 49 50
26 25 28 26 30 32 43 46 58 66 69 60 38 39 42 41 45 46 45 44 28 27 38 50 61 35 114 116 115 112 110 100 96 100 46 100 110 70 72 50 59 58 61 40 50
28 30 30 29 31 33 37 47 57 63 75 61 34 31 37 41 39 38 31 29 25 30 28 48 72 65 112 112 117 114 107 104 96 96 85 13 84 91 80 73 71 69 66 68 46
Wind_Direction
254 247 245 239 252 249 256 238 254 235 214 207 206 206 222 220 220 218 226 229 229 231 229 231 232 238 243 241 243 246 233 250 207 200 264 261 312 304 356 305 333 320 329 336 344
251 250 254 258 256 245 252 245 238 240 240 216 213 199 200 225 225 225 228 228 227 230 234 228 232 233 217 246 248 254 252 225 237 199 246 193 269 151 186 145 300 306 331 2 342
263 257 254 257 260 263 259 254 249 245 240 240 218 222 204 206 214 224 224 229 230 233 235 238 239 233 239 225 249 210 209 203 226 258 233 270 277 277 219 286 291 313 353 354 345
261 259 260 257 254 254 257 261 256 252 245 240 234 232 223 227 217 218 217 228 230 228 234 236 236 244 242 238 235 245 248 220 254 258 213 232 193 267 223 265 298 323 341 346 321
260 260 260 258 256 255 254 251 256 252 250 247 244 238 240 232 229 217 218 220 227 229 233 230 237 240 240 239 241 245 237 215 229 245 232 236 149 257 248 253 306 309 326 322 325
261 260 259 257 256 252 253 251 251 248 248 250 242 243 242 245 241 232 227 226 224 226 226 231 231 235 235 235 236 236 231 233 241 251 222 248 262 270 281 288 294 299 282 301 305
257 259 260 258 257 256 255 254 251 250 249 245 246 243 244 248 244 239 233 233 227 228 227 227 226 226 233 234 240 238 241 227 234 246 244 213 237 262 267 260 273 247 256 271 286
260 262 262 259 258 253 251 251 249 248 248 248 245 242 236 242 245 239 235 238 236 237 232 231 232 234 230 227 231 232 238 233 239 243 243 247 250 268 269 268 267 259 254 260 328
266 264 260 261 260 263 256 252 248 248 247 247 247 244 239 235 244 244 236 231 231 230 234 237 235 233 236 229 230 232 230 230 234 238 208 183 232 241 266 245 250 259 277 313 276
269 267 265 265 265 263 259 255 250 247 245 245 247 246 243 239 234 242 246 232 230 228 229 234 234 236 235 225 226 238 236 229 238 239 227 228 222 215 228 230 233 245 251 252 260
270 276 266 275 266 265 262 257 253 251 252 244 245 247 244 241 236 236 259 235 235 237 228 234 235 235 233 234 231 227 200 224 226 222 222 226 229 229 236 242 246 219 252 263 267
273 272 269 268 268 266 264 266 270 269 257 247 247 242 243 242 239 218 237 232 231 232 242 228 235 236 233 236 228 236 233 228 235 233 227 227 233 214 245 235 245 244 227 253 249
272 268 269 266 266 270 260 265 268 268 266 260 257 247 244 240 240 236 236 238 231 231 228 238 240 223 230 242 232 223 238 228 230 242 229 234 231 236 248 248 247 242 237 261 214
274 270 275 267 268 269 269 261 265 263 270 265 260 256 251 242 239 237 235 236 234 232 230 230 244 242 248 224 233 234 229 229 223 201 226 232 226 241 237 233 239 241 243 234 237
278 271 270 272 272 270 270 268 270 274 266 261 259 257 254 251 248 239 235 234 232 231 230 228 234 238 242 233 226 210 234 218 231 207 239 223 225 229 242 240 228 236 241 229 246
277 277 282 280 284 276 279 285 280 274 269 269 263 254 255 253 251 246 244 234 233 227 227 231 234 236 220 230 232 199 231 212 215 233 249 235 227 215 235 236 229 222 212 235 197
281 284 282 281 279 283 287 283 283 281 281 276 270 262 257 250 249 246 240 236 238 232 224 225 213 219 233 230 240 213 160 201 203 226 237 231 227 222 204 181 210 229 229 239 254
289 290 290 288 288 293 289 287 287 286 279 268 262 255 252 245 244 242 239 237 236 230 229 227 238 234 237 232 225 235 225 217 204 204 222 234 231 234 216 210 220 218 231 240 236
295 292 290 292 291 291 291 291 293 285 281 275 267 257 244 252 247 244 237 235 234 230 227 225 229 238 212 233 232 202 185 224 217 217 235 220 233 237 233 180 220 216 224 222 233
296 294 294 295 296 294 298 297 298 297 296 289 280 274 265 253 250 246 236 229 230 230 225 222 220 227 233 226 213 229 224 223 218 214 229 233 194 195 196 201 219 226 226 237 234
298 298 299 299 301 308 316 316 316 313 308 304 295 287 275 265 263 259 257 255 252 229 226 221 216 223 223 230 221 229 230 220 218 239 223 221 231 208 218 231 209 209 224 240 235
302 303 304 315 317 316 314 311 310 313 313 319 303 285 275 268 264 259 255 251 254 248 225 222 216 216 222 224 221 226 223 249 245 221 222 227 241 234 217 226 220 218 222 238 204
307 329 331 328 324 329 335 335 335 328 322 317 311 291 278 269 267 263 261 260 262 263 254 223 212 210 216 221 225 224 223 224 222 222 219 224 203 227 225 232 226 233 222 231 237
330 335 340 331 333 324 342 333 331 330 329 321 307 289 278 270 267 267 262 266 274 260 243 237 217 209 215 216 221 217 224 220 222 226 228 231 197 229 233 230 230 182 190 231 235
338 339 333 331 342 335 322 334 338 334 331 321 306 291 281 277 277 282 286 291 288 238 230 220 215 206 209 212 214 217 218 217 222 100 221 231 238 229 232 233 198 233 226 233 235
334 331 327 337 335 333 344 338 341 336 335 331 309 292 289 290 292 296 293 281 270 226 226 212 202 213 206 207 212 214 218 213 212 221 246 225 232 229 230 232 234 231 236 217 236
335 335 337 331 339 340 342 345 343 338 335 339 321 308 298 293 292 292 290 268 249 225 223 204 194 199 203 203 209 209 211 217 210 211 220 212 227 226 227 230 232 234 234 235 232